Vertical_Velocity
-9 -6 -3 -1 -4 -8 -6 2 -2 -10 -12 -3 -3 -6 -7 -3 -2 -2 -3 -2 -2 -3 -6 -7 -7 -6 -7 -6 -6 -5 -5 -5 -4 -4 -3 -2 -2 -1 -1 -1 -1 -2 -1 -1 -0 0 1 -0 -1 -2 -2 -2 -1 -1 -0 -1 -2 -3 -2 0 -0 -2 -0 -0 -0 -0 -0 -4 -5 -6 -5 -4 -4 -4 -5 -6 -6 -6 -5 -5 -6 -7 -8 -6 -6 -5
-7 -5 -1 -1 -5 -9 -10 0 1 -4 -13 -10 -7 -5 -7 -7 -6 -5 -5 -3 -0 -0 -3 -6 -7 -7 -8 -8 -8 -7 -5 -4 -4 -3 -2 -1 -0 -0 -0 -0 -1 -1 -0 0 1 1 1 0 -1 -2 -2 -3 -2 -2 -2 -2 -2 -2 -3 -3 -3 -3 -2 -2 -3 -4 -5 -5 -4 -3 -1 -1 -1 -2 -3 -3 -4 -4 -3 -3 -4 -5 -6 -5 -4 -4
-10 -10 -2 -0 -4 -9 -12 -8 -3 -1 -5 -10 -8 -6 -5 -8 -8 -7 -5 -5 -3 -2 -0 -2 -4 -6 -8 -8 -6 -4 -3 -2 -1 -1 -1 -0 -0 -1 -1 -1 -1 -1 -0 0 1 2 2 1 -0 -1 -2 -2 -2 -3 -3 -3 -2 -2 -2 -3 -3 -2 -2 -3 -4 -5 -5 -2 1 2 2 -1 -2 -2 -2 -3 -3 -4 -4 -5 -6 -6 -5 -4 -3 -3
-8 -13 -8 -4 -5 -8 -8 -8 -7 -4 -1 -6 -8 -7 -5 -6 -6 -6 -3 -3 -4 -4 -2 -1 -2 -4 -6 -7 -6 -4 -1 -0 -0 -0 -1 -1 -2 -2 -2 -1 -1 -0 -0 0 1 2 2 0 -0 -1 -1 -2 -3 -3 -3 -2 -1 -1 -0 -1 -1 -1 -2 -3 -3 -3 -0 2 4 5 2 -1 -3 -3 -2 -3 -3 -3 -3 -4 -5 -5 -5 -4 -2 -2
-5 -9 -9 -7 -8 -10 -8 -5 -4 -4 -3 -4 -7 -8 -6 -3 -3 -3 -4 -3 -2 -2 -2 -1 -1 -1 -3 -5 -6 -5 -2 -1 -1 -1 -2 -2 -2 -2 -2 -1 -1 -0 -0 0 1 1 0 -0 -0 -0 -0 -2 -3 -3 -2 -1 0 0 0 0 -0 -1 -2 -2 -2 -1 1 1 2 2 1 0 -1 -1 -1 -2 -2 -1 -1 0 1 1 -1 -2 -2 -1
-5 -5 -7 -6 -7 -8 -10 -6 -3 -3 -7 -8 -9 -7 -4 -2 -1 -2 -4 -4 -4 -3 -2 -1 -0 0 -0 -3 -4 -5 -4 -3 -2 -2 -2 -2 -2 -2 -1 -0 -0 0 -0 -0 -0 -1 -1 -1 -0 0 -0 -1 -2 -2 -1 -0 0 0 -0 0 -0 -1 -1 -2 -1 -0 0 2 2 2 1 2 1 1 0 -0 -0 -1 -1 1 4 5 4 1 -0 -1
-6 -2 -2 -5 -5 -4 -6 -7 -5 -4 -7 -12 -12 -9 -5 -2 -1 -1 -3 -3 -3 -3 -4 -3 -1 1 2 0 -1 -2 -3 -3 -2 -2 -2 -2 -1 -1 -0 0 0 -0 -1 -1 -2 -2 -1 -0 0 0 -0 -1 -2 -2 -2 -1 -0 -0 -1 -1 -1 -1 -2 -2 -1 0 3 5 5 3 2 1 1 1 1 1 -0 -2 -2 -1 1 2 3 2 1 -0
-9 -4 2 -5 -9 -11 -8 -7 -7 -7 -7 -8 -9 -10 -11 -8 -6 -3 -3 -2 -1 -1 -3 -7 -7 -3 3 4 3 1 -1 -2 -3 -3 -2 -2 -1 -1 -0 -0 -1 -1 -2 -2 -1 -0 0 0 0 0 -0 -1 -2 -2 -2 -1 -1 -1 -1 -1 -2 -2 -3 -2 -1 1 6 8 6 2 1 -1 -1 -2 -0 0 -1 -2 -2 -2 -2 -0 2 2 2 1
-8 -10 -7 -5 -8 -12 -15 -12 -8 -4 -1 1 1 -2 -6 -9 -10 -10 -6 -3 0 2 2 -5 -10 -10 -3 4 6 4 1 -0 -1 -2 -3 -3 -4 -4 -3 -4 -4 -4 -3 -1 -0 1 1 1 1 0 -0 -1 -1 -1 -1 -1 -1 -1 -1 -1 -1 -1 -1 -0 0 3 7 7 4 0 -2 -2 -2 -1 -1 -2 -1 0 1 0 0 1 4 5 5 4
-6 -10 -12 -2 3 1 -7 -11 -9 -2 5 7 8 8 7 2 -6 -13 -16 -12 -4 3 8 3 -3 -8 -10 -1 4 6 3 -0 -1 -0 -1 -3 -4 -4 -4 -5 -5 -4 -2 -0 0 1 1 1 1 0 -0 -0 -0 -0 -0 -1 -1 -1 -1 -1 -1 -0 -0 0 2 5 7 5 2 -0 -1 -0 0 1 -1 -2 -1 1 4 3 4 5 7 8 7 6
-7 -1 6 10 9 6 3 -2 -5 -4 0 2 2 3 6 6 2 -6 -18 -22 -15 -5 2 4 4 1 -5 -5 -1 2 3 -2 -5 -6 -5 -3 -2 -1 -2 -3 -3 -2 -0 0 0 1 1 1 1 -0 -0 -0 1 1 1 -0 -1 -1 -1 -1 -1 -0 -0 0 2 4 5 4 2 1 1 2 2 1 -1 -2 -2 0 2 3 4 7 10 8 6 5
4 11 17 12 5 1 1 -3 -6 -7 -3 -1 -4 -8 -9 -2 4 4 -5 -17 -17 -12 -6 -6 -2 3 6 1 -2 -4 -3 -7 -11 -13 -11 -7 -3 -0 -1 -4 -4 -2 0 0 0 1 3 2 1 0 -0 0 1 1 1 0 -1 -1 -1 -1 -0 -0 -0 -0 0 1 1 1 0 1 2 3 2 1 -2 -2 -2 -1 -0 0 3 6 7 4 2 1
16 14 9 4 2 2 1 -5 -11 -13 -9 -2 -2 -6 -13 -8 0 6 2 -8 -9 -6 -4 -10 -10 -4 7 8 4 -3 -10 -14 -14 -13 -9 -5 -1 1 -1 -7 -8 -5 -1 -2 -1 0 4 3 1 0 1 1 1 1 2 1 0 -0 -0 -0 -1 -1 -2 -1 -0 0 0 -1 -2 -2 0 0 -0 -2 -2 -2 -2 -3 -4 -3 -1 1 2 -1 -3 -3
7 4 2 1 1 1 1 -3 -7 -10 -11 -3 -1 -2 -6 -5 -1 2 1 -7 -7 -3 2 -6 -9 -7 1 5 4 -1 -6 -11 -14 -14 -9 -1 5 7 3 -7 -9 -6 0 -2 -3 -2 4 3 1 -0 1 2 2 2 2 2 1 1 1 -0 -1 0 2 3 3 2 0 -2 -3 -2 -1 -2 -2 -1 1 -0 -3 -5 -6 -6 -4 -3 -4 -6 -6 -6
-1 -1 0 -2 -3 -3 -3 -3 -5 -7 -8 -2 -0 -1 -4 -4 -1 1 1 -6 -7 -4 -0 -4 -6 -4 2 4 3 -0 -2 -8 -13 -14 -12 -4 6 13 10 -5 -10 -8 1 -1 -3 -2 3 3 1 -0 1 2 2 2 1 1 1 1 1 1 2 5 6 7 6 4 1 -0 -1 -1 -2 -3 -3 -2 -1 -2 -3 -5 -6 -5 -5 -5 -6 -7 -7 -7
1 2 0 -6 -9 -9 -6 -0 -1 -4 -7 -3 -0 0 -1 -4 -3 0 2 -3 -5 -5 -4 -8 -12 -12 -7 4 10 9 2 -10 -14 -14 -10 -10 1 13 16 -1 -10 -11 -2 0 -1 -2 1 2 3 2 2 2 2 2 2 0 -0 -1 -0 -1 -0 1 3 3 3 2 1 0 -1 -3 -4 -4 -5 -5 -6 -6 -6 -6 -5 -4 -3 -4 -5 -6 -6 -5
-1 -0 -2 -7 -11 -12 -9 -1 1 1 -1 -1 -1 -0 1 -0 -0 0 1 -2 -4 -6 -7 -6 -10 -14 -16 -5 5 12 9 -6 -14 -15 -9 -10 -2 9 15 3 -8 -12 -6 -0 1 0 -0 1 2 3 3 3 3 3 3 2 2 1 0 -0 -1 -2 -2 -2 -2 -2 -2 -3 -3 -3 -3 -5 -6 -6 -6 -6 -6 -6 -4 -2 -0 0 -0 -2 -3 -3
-4 -2 -3 -7 -10 -10 -7 -3 -1 0 1 -1 -2 -3 -2 1 2 3 0 -1 -4 -6 -10 -7 -4 -3 -5 -9 -6 2 13 2 -10 -16 -13 -11 -4 6 13 4 -4 -9 -6 -1 1 2 1 0 1 1 1 1 1 1 1 1 1 1 1 -1 -2 -3 -3 -4 -4 -4 -4 -3 -2 -1 -3 -5 -6 -6 -6 -5 -6 -5 -4 -2 0 2 2 -0 -2 -2
-7 -3 0 -4 -7 -8 -4 -1 1 1 -0 -2 -4 -5 -7 -4 -0 2 -0 -1 -0 -0 -0 -0 -3 -4 -2 -7 -7 -0 13 6 -4 -13 -15 -14 -7 2 11 4 -3 -7 -4 1 2 2 -1 -1 -1 0 -0 -1 -1 -1 -1 -1 -1 -2 -2 -3 -3 -3 -3 -3 -3 -3 -3 -0 0 -1 -4 -5 -6 -5 -4 -4 -3 -3 -2 -1 0 1 1 -2 -3 -4
-9 -7 1 2 -2 -7 -8 -2 2 3 0 -2 -3 -3 -5 -6 -3 -0 -0 1 3 5 6 4 -2 -7 -3 -5 -5 -1 8 5 -4 -12 -14 -12 -6 2 11 5 -2 -6 -3 1 1 0 -3 -4 -4 -2 -1 -2 -3 -3 -4 -4 -4 -4 -5 -4 -4 -3 -3 -2 -2 -1 -0 3 2 -0 -4 -4 -4 -3 -1 1 3 4 3 1 -1 -3 -3 -4 -4 -3
-9 -10 -3 7 5 -3 -10 -7 -3 1 2 0 -1 -2 -4 -4 -3 -1 1 4 3 1 1 0 -3 -4 0 -3 -5 -3 6 4 -4 -13 -19 -16 -8 2 13 5 -3 -8 -7 -3 0 1 -1 -4 -4 -2 -2 -3 -4 -4 -4 -6 -7 -7 -7 -5 -3 -1 -1 -0 1 2 6 5 2 -1 -3 -4 -3 -0 2 5 5 5 2 -3 -7 -8 -7 -4 -2 -1
-6 -9 -5 4 4 -0 -7 -8 -5 -1 2 3 2 -0 -3 -3 -4 -4 -3 -0 -0 -1 1 1 1 0 2 -2 -4 -2 7 4 -1 -9 -16 -20 -15 -4 13 5 -3 -8 -7 -4 -1 0 -0 -2 -2 -1 -0 -0 -0 -0 -1 -3 -4 -5 -6 -4 -1 1 2 2 3 4 6 3 1 -0 -3 -3 -2 0 2 2 0 -4 -10 -13 -14 -11 -6 -4 -2 -1
-2 -5 -4 -1 -0 -0 -2 -3 -3 -2 1 2 2 0 -1 -0 -2 -3 -4 -1 -1 -1 -1 -0 0 1 3 1 -1 -0 5 5 1 -4 -8 -16 -16 -9 7 4 -1 -4 -3 1 1 0 -1 -0 -0 0 1 1 1 0 -1 -1 -1 -1 -0 0 1 2 2 3 3 2 2 1 0 -1 -3 -2 -2 -1 -1 -3 -6 -11 -16 -16 -13 -9 -5 -3 -2 -1
-1 -3 -4 -2 -1 -0 -1 -2 -2 -2 -0 1 1 1 2 3 1 -1 -3 -2 -3 -3 -4 -2 -2 -1 0 3 3 1 3 5 2 -2 -6 -11 -11 -7 1 2 -2 -5 -4 3 3 0 -4 -2 1 2 2 2 2 2 1 1 2 2 3 2 1 1 0 1 1 1 1 1 -0 -1 -2 -2 -2 -2 -3 -6 -9 -11 -13 -11 -9 -7 -4 -3 -2 -1
-1 -2 -2 -1 -0 1 1 0 0 1 1 -0 -1 -1 0 1 1 0 0 0 -1 -2 -4 -3 -3 -3 -2 2 2 1 2 5 3 -0 -4 -8 -8 -5 3 3 -1 -6 -7 0 3 2 -4 -4 -1 2 3 2 3 3 2 3 3 4 3 1 -0 -0 0 1 1 1 1 0 -0 -1 -1 -2 -2 -2 -3 -5 -6 -7 -7 -7 -6 -6 -4 -3 -2 -1
-0 -0 -1 -0 0 1 2 1 2 2 2 2 0 -1 -1 -1 -1 -1 -0 1 1 -0 -3 -4 -4 -3 -0 1 -0 -2 -0 2 3 3 1 -3 -6 -5 1 3 -0 -6 -10 -4 1 2 -2 -5 -3 0 2 2 2 3 3 3 3 3 1 1 1 1 2 1 1 1 1 0 -0 -1 -1 -2 -2 -3 -4 -4 -4 -4 -4 -5 -5 -5 -4 -3 -3 -2
0 0 0 1 1 1 1 1 1 2 3 3 3 2 0 -1 -3 -3 -2 1 2 1 -2 -4 -6 -6 -3 -0 -1 -3 -3 -0 2 4 5 0 -4 -6 -3 1 -0 -5 -9 -6 -1 2 -0 -4 -4 -1 1 1 1 2 2 2 2 1 1 1 2 2 2 1 1 1 0 -0 -1 -1 -1 -2 -2 -3 -4 -4 -4 -4 -4 -4 -4 -4 -3 -4 -4 -4
0 0 1 1 1 0 0 0 1 1 2 3 4 4 4 2 -1 -3 -3 1 2 1 -1 -3 -5 -7 -7 -3 -2 -2 -3 -1 3 6 6 2 -3 -5 -3 -0 -0 -3 -7 -8 -4 1 3 -2 -3 -3 -1 -0 -0 0 1 1 1 1 1 2 2 2 2 1 1 0 -0 -1 -2 -2 -2 -2 -3 -3 -4 -4 -4 -4 -4 -3 -3 -2 -3 -4 -5 -6
1 2 1 2 2 1 1 1 2 2 3 4 5 6 6 4 1 -1 -3 -0 0 -0 -2 -2 -2 -4 -6 -4 -4 -3 -2 1 5 7 5 2 -2 -3 -0 0 -1 -2 -4 -9 -8 -3 3 1 -1 -3 -4 -2 -1 -0 0 1 1 1 1 2 2 2 2 1 0 -1 -1 -2 -3 -3 -3 -3 -3 -3 -3 -3 -3 -3 -2 -1 -1 -1 -3 -5 -6 -5
1 1 2 3 4 3 2 2 3 3 4 5 6 6 6 5 3 1 -0 0 -0 -1 -3 -3 -2 -2 -2 -4 -6 -7 -6 3 8 9 5 2 -2 -3 0 -1 -1 -2 -2 -8 -11 -10 -4 1 2 1 -2 -1 -0 1 1 1 1 1 1 1 1 1 1 1 -1 -2 -3 -3 -3 -3 -3 -2 -2 -2 -1 -1 -1 -1 -1 -0 -0 -1 -4 -5 -5 -4
-1 0 0 2 3 3 3 3 3 3 4 4 5 4 4 3 2 1 0 1 0 -1 -2 -3 -2 -1 0 -1 -5 -9 -12 -0 7 10 6 2 -1 -2 0 -2 -3 -3 1 -2 -7 -12 -15 -8 -1 4 3 1 1 2 2 1 1 1 0 -0 -0 0 1 -0 -2 -3 -4 -3 -3 -2 -1 -1 -0 -0 -1 -1 -1 -1 -1 -0 -1 -2 -4 -4 -4 -4
-0 0 1 1 2 2 2 2 2 2 2 2 2 2 2 2 1 1 0 1 0 -0 -1 -2 -2 -0 1 2 -1 -5 -9 -3 4 8 6 3 -1 -2 0 -1 -3 -4 1 3 1 -5 -13 -17 -10 -1 5 3 2 1 1 2 1 1 0 -0 -0 -0 -0 -1 -3 -4 -3 -2 -1 -0 0 0 -0 -0 -0 -1 -1 -1 -1 -1 -1 -2 -4 -4 -4 -4
1 2 2 2 2 2 2 2 2 1 0 -0 -0 -0 0 1 1 1 1 1 1 1 0 -1 -1 -1 -0 0 -1 -3 -4 -1 3 5 5 4 1 -1 -1 -1 -3 -3 -1 2 3 0 -6 -14 -14 -8 -0 2 2 1 1 1 2 1 1 -0 -1 -1 -1 -2 -3 -2 -1 0 1 1 1 0 0 1 1 1 1 1 1 0 -0 -2 -3 -4 -4 -3
2 2 2 1 1 1 1 1 1 0 -0 -0 -0 -0 -0 0 1 1 2 2 2 2 2 1 0 -0 -1 -1 -2 -3 -3 1 4 5 5 4 2 0 -1 -1 -2 -2 -1 -0 1 -0 -5 -9 -9 -7 -6 -2 2 4 3 1 1 1 1 -1 -2 -2 -2 -1 -1 -0 1 1 2 2 1 1 1 2 3 4 4 4 4 3 1 -0 -2 -3 -3 -3
1 1 1 0 -0 -1 -0 -0 -0 -0 -0 0 0 1 1 1 1 1 1 2 2 3 3 3 3 3 2 1 -1 -3 -4 0 3 5 5 4 3 1 -1 -2 -1 -0 0 -0 -0 -1 -6 -7 -4 -2 -4 -5 -0 4 6 3 1 1 -0 -1 -2 -2 -1 -1 -0 1 1 1 1 1 1 1 1 2 3 3 4 4 3 3 2 1 0 -0 -1 -1
-0 -0 -0 -1 -2 -2 -2 -2 -1 -1 -0 0 1 1 1 1 1 1 1 2 2 3 3 4 5 5 6 5 3 -0 -3 -1 1 3 4 4 3 2 -0 -2 -1 0 1 -1 -1 -2 -6 -6 -3 1 0 -3 -2 1 5 4 2 0 -2 -2 -1 -0 0 -0 -0 -0 -0 0 1 1 1 1 2 2 1 1 1 1 1 2 2 2 2 1 1 1
-2 -2 -1 -2 -2 -3 -3 -2 -1 -1 -0 -0 1 1 1 1 1 1 1 2 2 3 3 3 4 5 6 6 5 3 1 0 1 1 2 3 3 2 0 -2 -1 1 2 -1 -3 -4 -6 -6 -4 -1 2 1 -0 -1 1 2 2 -0 -2 -1 0 1 0 -1 -1 -1 -1 -0 1 2 3 2 1 0 0 -0 -1 -1 -1 0 1 2 2 2 1 1
-2 -2 -2 -2 -2 -2 -2 -2 -1 -1 -0 -0 -0 -0 0 0 0 0 0 1 1 2 2 1 2 4 6 6 6 4 3 2 1 1 2 2 3 2 0 -2 -1 0 2 0 -1 -3 -5 -5 -5 -4 -2 1 2 2 0 0 -1 -2 -1 1 1 -0 -2 -2 -2 -1 0 2 4 5 6 5 5 5 5 4 3 2 3 4 4 4 3 4 4 3
-2 -2 -2 -1 -1 -1 -1 -1 -1 -0 -0 0 0 0 -0 -0 0 1 1 1 1 1 1 1 1 2 4 5 5 5 4 3 2 2 2 2 2 2 1 -1 -2 -1 1 1 0 -0 -1 -2 -3 -3 -4 -3 -0 2 3 0 -1 -1 1 2 0 -2 -3 -2 -1 2 4 8 11 13 12 12 12 12 10 9 8 8 8 7 6 6 5 6 6 4
-2 -2 -1 -0 0 1 0 -0 -0 -0 -0 0 0 1 0 -0 -0 0 2 2 2 1 1 1 1 2 3 4 4 4 4 4 3 3 2 2 2 2 1 0 -1 -1 -0 0 1 1 1 -0 -1 -1 -2 -3 -2 -0 1 -0 -1 -0 3 2 -0 -3 -2 -0 3 6 11 14 16 15 12 9 7 6 6 6 7 7 7 7 7 7 8 9 8 5
-2 -2 -1 0 1 1 1 1 1 1 0 0 -0 -0 -0 -1 -2 -1 -0 2 3 3 2 1 2 3 5 6 6 6 5 4 3 3 2 1 1 1 1 1 0 -0 -1 -1 0 1 2 1 -1 -1 -1 -1 -0 0 0 -1 -0 1 4 1 -1 -2 -1 3 7 11 14 13 10 6 3 2 2 3 4 4 4 4 3 2 2 2 3 6 11 11
-1 -1 -1 -0 -0 0 1 1 1 2 2 1 1 0 -0 -1 -2 -3 -2 -1 0 1 1 1 0 1 2 6 8 8 7 5 3 2 1 1 1 1 1 1 1 0 -1 -1 0 2 3 1 -0 -1 -1 -0 0 0 0 -0 1 2 4 1 -1 -1 0 6 10 11 10 7 4 1 0 1 3 4 4 3 2 2 4 3 -0 -3 -5 -2 6 13
-1 -0 -0 -0 -0 0 1 1 1 2 2 2 2 2 1 0 -1 -2 -2 -2 -1 -0 0 -0 -0 -0 -0 2 6 8 8 6 4 2 1 1 1 1 1 1 1 0 -0 -1 -0 1 3 2 1 -0 -0 -0 -0 -0 -1 -0 1 3 4 2 0 1 5 9 10 8 5 2 0 -1 0 1 2 3 3 3 3 4 7 7 4 -1 -5 -6 -0 9
-1 -0 -0 -0 -0 0 1 1 2 2 2 2 2 2 1 1 0 -0 -1 -1 -0 -0 -0 -0 -0 -0 0 1 3 5 7 6 5 3 2 2 2 2 1 1 1 1 0 -0 -0 -0 1 2 2 1 1 0 -0 -1 -1 1 2 4 4 2 1 3 8 10 8 5 2 1 -1 -1 0 1 1 2 3 3 4 4 6 8 5 1 -4 -6 -4 2
-0 -0 -0 -0 0 0 1 1 1 2 2 2 2 1 1 1 1 0 -0 -1 -0 -0 0 -0 -1 -1 -1 1 2 4 5 5 4 3 3 3 4 4 3 1 1 0 1 1 0 0 0 1 1 2 1 -0 -1 -1 0 2 3 4 3 2 3 5 9 8 5 2 1 -0 -1 -1 1 1 1 2 3 3 3 3 4 4 3 1 -2 -4 -4 -4
-0 -0 -0 -0 0 1 1 1 1 1 2 2 2 1 1 1 1 2 1 0 -0 -0 0 0 -0 -1 -1 -0 1 2 2 2 1 2 2 3 4 4 4 2 1 0 0 1 0 0 0 1 1 1 1 -0 -1 -0 1 3 3 3 2 2 4 7 8 5 2 0 -0 -1 -1 -0 1 1 2 2 3 3 3 2 1 1 0 -0 -1 -2 -3 -4
-0 -0 -0 0 1 1 1 1 1 1 1 2 2 2 2 1 1 1 2 1 1 1 0 1 1 1 1 1 1 -0 -1 -2 -1 0 1 3 4 5 4 3 2 0 0 0 0 0 -0 1 1 1 0 -0 -0 0 2 3 3 2 1 3 6 7 5 2 0 -1 -1 -1 -0 0 1 1 1 2 3 3 3 2 1 1 0 -0 -1 -1 -1 -2
-0 -0 -0 0 1 1 1 1 1 1 1 2 3 4 4 3 2 1 1 2 2 1 1 1 1 2 3 3 2 1 -1 -1 -1 -0 1 2 3 4 4 3 2 1 0 0 0 0 0 1 1 0 -0 -0 1 1 2 2 2 2 3 5 6 5 2 0 -1 -1 -1 -0 1 1 1 1 2 2 2 3 3 3 2 2 1 0 -1 -1 -1 -0
1 1 0 -0 -0 0 0 1 1 1 1 1 2 4 5 5 4 4 3 3 2 2 1 0 1 1 2 3 2 1 1 1 1 1 1 2 3 4 4 3 1 1 -0 0 0 0 1 1 1 0 -0 0 1 1 1 1 2 3 6 6 4 2 -0 -1 -1 -2 -1 0 1 1 1 1 2 3 3 3 4 3 2 2 2 1 0 -1 -1 -0
2 2 1 1 0 0 0 1 1 1 1 1 1 2 3 4 5 5 4 4 4 3 2 1 0 0 1 1 1 1 1 1 2 2 2 3 3 3 3 2 1 1 0 0 0 0 1 1 1 1 0 1 1 1 1 2 4 5 6 4 2 -0 -1 -1 -1 -1 0 1 2 2 2 3 4 4 4 4 4 3 2 2 2 2 2 1 1 1
2 2 2 1 1 1 1 1 0 0 0 1 1 1 1 1 2 3 4 4 4 4 3 2 1 0 -0 -0 0 0 1 1 2 2 3 3 3 3 2 1 1 1 1 1 1 1 1 1 1 1 1 2 2 1 1 4 5 5 4 2 0 -1 -1 0 1 1 1 3 4 5 6 6 6 6 6 5 4 3 2 1 1 1 2 3 4 4
Height
2872 2870 2867 2866 2864 2861 2858 2857 2856 2853 2849 2847 2845 2844 2842 2840 2838 2836 2835 2833 2831 2829 2827 2826 2825 2824 2822 2821 2820 2818 2817 2816 2815 2814 2813 2812 2811 2810 2809 2808 2806 2805 2804 2803 2802 2801 2800 2798 2797 2796 2795 2794 2793 2792 2791 2791 2790 2790 2790 2790 2789 2789 2788 2789 2788 2788 2787 2786 2786 2786 2786 2786 2787 2787 2787 2788 2789 2791 2793 2795 2796 2798 2800 2802 2804 2806
2868 2866 2863 2862 2861 2858 2854 2852 2852 2850 2846 2842 2841 2839 2838 2836 2833 2831 2830 2829 2827 2826 2824 2822 2821 2819 2817 2816 2815 2814 2813 2812 2811 2810 2809 2808 2807 2806 2805 2803 2802 2801 2800 2799 2798 2797 2796 2794 2792 2791 2790 2789 2788 2787 2786 2786 2785 2785 2785 2784 2784 2784 2784 2784 2783 2783 2782 2782 2782 2783 2783 2783 2783 2783 2783 2783 2784 2786 2787 2789 2791 2792 2795 2797 2799 2801
2864 2861 2859 2858 2856 2854 2851 2848 2847 2845 2843 2840 2837 2835 2834 2831 2829 2827 2826 2825 2823 2822 2821 2819 2817 2815 2813 2812 2811 2810 2809 2808 2807 2806 2805 2804 2803 2802 2800 2799 2798 2797 2796 2795 2794 2793 2791 2790 2788 2787 2786 2785 2783 2782 2781 2781 2781 2780 2780 2780 2779 2779 2779 2779 2779 2779 2779 2780 2781 2781 2781 2780 2779 2779 2779 2779 2780 2781 2782 2783 2785 2787 2789 2792 2794 2796
2861 2858 2855 2853 2851 2849 2847 2845 2843 2841 2839 2837 2834 2831 2830 2828 2826 2824 2823 2822 2820 2818 2817 2816 2814 2812 2810 2808 2807 2806 2805 2804 2803 2802 2801 2800 2798 2797 2796 2795 2794 2793 2792 2791 2790 2789 2787 2786 2784 2783 2781 2780 2779 2778 2777 2776 2776 2776 2776 2775 2775 2775 2775 2775 2775 2776 2776 2777 2777 2777 2776 2775 2775 2774 2775 2775 2776 2777 2778 2779 2781 2782 2784 2787 2789 2791
2857 2855 2851 2849 2847 2845 2843 2842 2840 2838 2836 2833 2831 2828 2826 2825 2823 2821 2820 2818 2817 2815 2814 2812 2811 2809 2806 2804 2803 2801 2800 2799 2798 2797 2796 2795 2794 2792 2791 2791 2790 2789 2788 2787 2786 2785 2783 2781 2780 2779 2777 2776 2775 2774 2773 2772 2772 2771 2771 2771 2771 2771 2771 2771 2771 2772 2773 2773 2773 2773 2772 2772 2771 2771 2771 2771 2772 2773 2774 2776 2778 2779 2780 2782 2784 2786
2853 2851 2849 2846 2844 2841 2840 2838 2836 2835 2832 2829 2826 2825 2824 2822 2821 2818 2816 2815 2813 2811 2810 2808 2807 2805 2803 2801 2799 2797 2796 2795 2793 2792 2791 2791 2790 2789 2788 2787 2786 2785 2784 2783 2782 2780 2779 2777 2776 2775 2773 2772 2771 2770 2769 2768 2767 2767 2767 2766 2766 2767 2767 2767 2768 2769 2770 2770 2770 2769 2769 2769 2768 2768 2768 2768 2769 2770 2771 2772 2774 2776 2777 2778 2780 2782
2848 2847 2846 2844 2841 2838 2837 2835 2833 2831 2828 2825 2823 2821 2820 2819 2817 2815 2813 2811 2809 2807 2806 2804 2803 2801 2799 2797 2796 2794 2792 2791 2789 2788 2788 2787 2786 2785 2784 2783 2782 2781 2780 2779 2777 2776 2775 2774 2773 2771 2770 2768 2767 2766 2765 2764 2763 2763 2762 2762 2762 2762 2763 2764 2765 2766 2766 2767 2766 2766 2765 2765 2765 2765 2765 2766 2766 2766 2767 2768 2770 2771 2773 2774 2776 2777
2845 2843 2842 2840 2837 2834 2831 2831 2829 2827 2825 2823 2820 2818 2816 2814 2812 2811 2809 2807 2806 2804 2801 2799 2798 2796 2795 2794 2792 2791 2789 2787 2786 2785 2784 2783 2782 2781 2781 2779 2778 2777 2776 2774 2773 2772 2771 2770 2769 2767 2766 2765 2763 2762 2761 2761 2760 2759 2759 2758 2758 2759 2759 2760 2761 2762 2763 2763 2763 2762 2762 2761 2761 2761 2761 2762 2762 2763 2764 2766 2766 2767 2769 2770 2771 2773
2843 2840 2836 2835 2834 2831 2827 2825 2825 2825 2824 2822 2819 2816 2813 2811 2808 2806 2804 2802 2801 2800 2798 2796 2793 2791 2791 2790 2789 2787 2786 2784 2783 2781 2781 2779 2778 2777 2776 2775 2774 2772 2771 2771 2770 2769 2768 2766 2766 2764 2763 2761 2760 2759 2758 2757 2756 2756 2756 2756 2755 2756 2756 2757 2758 2759 2759 2759 2759 2758 2758 2758 2758 2758 2758 2758 2759 2761 2761 2762 2763 2764 2766 2766 2768 2769
2840 2837 2834 2832 2832 2830 2827 2823 2822 2822 2823 2821 2818 2816 2814 2810 2806 2802 2799 2797 2797 2796 2795 2793 2790 2788 2786 2786 2785 2784 2782 2781 2780 2779 2777 2776 2774 2773 2772 2771 2770 2769 2768 2767 2766 2765 2764 2763 2762 2761 2760 2758 2757 2756 2755 2754 2754 2753 2753 2753 2753 2753 2754 2754 2755 2756 2756 2756 2755 2755 2756 2756 2756 2755 2755 2755 2756 2757 2758 2759 2760 2761 2762 2763 2764 2766
2836 2835 2835 2833 2830 2827 2825 2822 2820 2819 2819 2816 2814 2812 2810 2808 2804 2800 2796 2793 2791 2791 2791 2789 2787 2785 2783 2781 2781 2780 2779 2777 2776 2774 2773 2772 2771 2770 2768 2767 2766 2766 2765 2764 2763 2762 2761 2760 2759 2758 2757 2756 2755 2754 2753 2752 2751 2751 2751 2751 2751 2751 2751 2752 2752 2752 2752 2752 2752 2752 2752 2752 2752 2752 2751 2752 2752 2753 2754 2755 2756 2757 2758 2759 2760 2761
2836 2836 2834 2831 2827 2824 2821 2819 2817 2815 2814 2812 2809 2806 2804 2803 2801 2798 2794 2790 2788 2787 2786 2785 2783 2782 2780 2778 2776 2776 2775 2773 2771 2770 2769 2768 2767 2766 2765 2763 2763 2762 2761 2760 2759 2759 2758 2757 2756 2755 2754 2753 2752 2751 2750 2749 2749 2749 2748 2748 2748 2749 2749 2749 2750 2749 2749 2749 2749 2748 2749 2748 2748 2748 2748 2748 2749 2749 2750 2751 2751 2753 2753 2754 2755 2756
2837 2834 2831 2827 2824 2822 2819 2816 2813 2811 2810 2808 2806 2802 2800 2798 2797 2796 2792 2789 2786 2784 2783 2780 2778 2777 2777 2776 2774 2772 2770 2769 2768 2767 2766 2765 2764 2763 2761 2760 2759 2758 2758 2756 2756 2755 2755 2754 2753 2752 2751 2750 2749 2749 2748 2747 2746 2746 2746 2746 2746 2746 2746 2747 2747 2746 2746 2745 2745 2745 2745 2744 2744 2744 2745 2745 2745 2745 2745 2746 2746 2747 2748 2749 2750 2751
2833 2829 2826 2824 2821 2819 2816 2814 2811 2808 2806 2804 2802 2800 2797 2795 2793 2791 2789 2786 2783 2781 2780 2777 2774 2773 2772 2772 2771 2770 2769 2767 2766 2764 2762 2761 2761 2760 2758 2756 2756 2755 2755 2753 2752 2752 2752 2751 2750 2749 2749 2748 2747 2746 2745 2745 2744 2744 2744 2743 2743 2743 2744 2744 2743 2743 2742 2741 2741 2741 2741 2741 2741 2741 2741 2741 2741 2741 2741 2741 2741 2742 2743 2744 2746 2747
2829 2826 2824 2821 2818 2816 2813 2811 2808 2805 2802 2801 2798 2796 2794 2791 2790 2788 2786 2782 2780 2778 2776 2774 2771 2770 2769 2768 2768 2768 2767 2765 2763 2761 2759 2758 2758 2757 2756 2754 2752 2751 2751 2750 2749 2748 2748 2748 2747 2746 2746 2745 2744 2744 2743 2742 2741 2741 2741 2741 2741 2741 2741 2740 2739 2738 2738 2738 2738 2737 2737 2737 2737 2737 2737 2737 2737 2738 2738 2738 2738 2739 2740 2741 2742 2743
2827 2825 2821 2818 2815 2812 2810 2808 2805 2802 2799 2797 2795 2793 2791 2789 2787 2785 2783 2780 2777 2775 2773 2770 2768 2766 2765 2765 2766 2766 2765 2762 2759 2757 2756 2754 2753 2754 2753 2751 2749 2748 2747 2746 2746 2745 2745 2745 2744 2744 2743 2742 2742 2741 2740 2740 2739 2738 2738 2738 2737 2737 2737 2736 2736 2735 2735 2734 2734 2734 2733 2733 2733 2733 2733 2733 2734 2734 2735 2735 2736 2736 2737 2738 2739 2740
2824 2822 2819 2815 2811 2808 2806 2804 2802 2799 2796 2794 2792 2791 2789 2786 2784 2782 2780 2777 2775 2772 2770 2768 2766 2763 2761 2761 2762 2762 2761 2759 2756 2754 2752 2750 2749 2750 2750 2748 2746 2744 2743 2743 2742 2741 2741 2741 2741 2740 2740 2739 2739 2738 2738 2737 2736 2736 2735 2735 2734 2734 2733 2732 2732 2731 2731 2731 2730 2730 2729 2729 2728 2728 2729 2729 2730 2731 2732 2732 2733 2734 2734 2735 2736 2737
2821 2818 2815 2811 2807 2804 2802 2800 2798 2796 2794 2791 2789 2787 2785 2783 2781 2779 2777 2775 2773 2771 2768 2767 2766 2764 2761 2758 2757 2758 2759 2756 2753 2751 2748 2746 2745 2746 2746 2745 2743 2741 2740 2739 2739 2738 2737 2737 2737 2736 2736 2736 2735 2735 2734 2734 2733 2733 2732 2731 2731 2730 2729 2729 2728 2728 2727 2726 2726 2726 2725 2724 2724 2724 2725 2725 2726 2727 2728 2729 2730 2730 2731 2732 2733 2734
2816 2814 2811 2808 2804 2801 2799 2797 2796 2793 2791 2789 2786 2784 2782 2780 2778 2776 2774 2773 2771 2770 2768 2766 2764 2761 2759 2756 2754 2755 2756 2754 2751 2748 2745 2742 2741 2742 2742 2741 2740 2738 2736 2736 2735 2734 2733 2733 2732 2732 2732 2731 2731 2731 2731 2730 2730 2729 2728 2727 2727 2726 2725 2725 2724 2723 2722 2722 2722 2721 2719 2718 2719 2719 2720 2721 2722 2723 2725 2725 2726 2726 2727 2728 2729 2730
2812 2810 2808 2806 2802 2799 2796 2794 2793 2791 2788 2786 2784 2782 2779 2777 2776 2774 2772 2771 2770 2769 2767 2765 2761 2758 2756 2754 2752 2752 2753 2752 2749 2746 2742 2739 2738 2738 2739 2738 2736 2734 2732 2731 2730 2730 2729 2728 2728 2727 2727 2727 2727 2727 2727 2726 2726 2725 2724 2724 2723 2722 2721 2720 2719 2718 2718 2718 2716 2714 2713 2713 2713 2714 2715 2716 2718 2719 2720 2721 2722 2722 2723 2724 2725 2726
2809 2806 2805 2803 2800 2796 2793 2791 2789 2788 2786 2785 2782 2780 2778 2776 2774 2772 2771 2770 2768 2765 2763 2760 2757 2755 2754 2751 2750 2749 2750 2749 2746 2743 2739 2737 2735 2735 2735 2734 2732 2729 2728 2727 2726 2726 2726 2725 2724 2723 2723 2723 2723 2722 2722 2721 2721 2720 2720 2719 2718 2717 2716 2715 2714 2714 2713 2711 2709 2708 2707 2707 2708 2709 2711 2712 2713 2714 2716 2716 2717 2717 2719 2720 2721 2722
2806 2803 2801 2800 2797 2794 2791 2788 2786 2786 2784 2783 2781 2779 2776 2774 2771 2769 2767 2766 2764 2761 2759 2757 2755 2753 2751 2749 2747 2746 2747 2746 2744 2741 2737 2734 2732 2731 2732 2730 2728 2726 2724 2724 2723 2723 2722 2721 2720 2720 2719 2719 2719 2718 2717 2716 2716 2715 2715 2714 2713 2712 2711 2710 2710 2709 2707 2706 2704 2703 2702 2702 2703 2704 2705 2706 2708 2709 2709 2711 2712 2714 2715 2716 2718 2719
2804 2800 2798 2796 2794 2791 2789 2787 2785 2783 2782 2780 2778 2776 2774 2771 2769 2766 2765 2763 2761 2758 2756 2754 2751 2749 2748 2746 2745 2744 2744 2743 2741 2739 2736 2732 2729 2728 2729 2727 2726 2724 2722 2721 2720 2719 2718 2717 2716 2716 2715 2715 2715 2714 2713 2712 2712 2711 2711 2710 2709 2708 2707 2706 2705 2704 2702 2700 2699 2698 2697 2698 2698 2699 2700 2701 2702 2703 2704 2706 2708 2711 2712 2713 2714 2716
2800 2797 2795 2793 2791 2789 2787 2785 2782 2780 2779 2777 2775 2773 2771 2769 2766 2764 2762 2760 2758 2755 2753 2750 2748 2746 2744 2744 2742 2741 2741 2740 2739 2736 2734 2730 2727 2725 2725 2725 2723 2721 2718 2718 2717 2716 2714 2713 2713 2712 2712 2712 2711 2711 2710 2710 2709 2708 2707 2706 2705 2703 2702 2701 2700 2698 2697 2695 2694 2693 2693 2693 2694 2694 2695 2696 2697 2699 2701 2703 2705 2707 2709 2710 2711 2712
2797 2795 2793 2791 2789 2787 2785 2783 2781 2779 2777 2775 2772 2770 2768 2766 2764 2761 2760 2757 2756 2753 2751 2748 2745 2743 2742 2741 2740 2738 2737 2737 2736 2734 2731 2728 2725 2723 2722 2722 2720 2718 2716 2715 2714 2713 2711 2710 2710 2709 2709 2708 2708 2708 2707 2706 2706 2704 2703 2701 2700 2699 2698 2697 2695 2694 2692 2691 2690 2689 2689 2689 2690 2690 2691 2692 2693 2695 2697 2700 2702 2704 2705 2706 2708 2709
2795 2793 2791 2788 2786 2785 2783 2781 2779 2777 2775 2773 2771 2768 2766 2763 2761 2759 2757 2755 2753 2751 2748 2746 2743 2741 2740 2738 2736 2735 2734 2734 2733 2731 2729 2726 2722 2719 2719 2719 2717 2715 2712 2711 2711 2710 2708 2707 2706 2706 2706 2705 2705 2705 2704 2703 2701 2700 2698 2697 2696 2695 2694 2693 2691 2690 2689 2687 2686 2686 2686 2686 2686 2686 2687 2688 2690 2691 2694 2696 2698 2700 2702 2703 2705 2706
2792 2790 2788 2786 2784 2782 2781 2778 2777 2775 2773 2771 2769 2766 2764 2761 2758 2756 2754 2753 2751 2749 2746 2743 2741 2738 2737 2736 2734 2732 2732 2731 2730 2729 2726 2724 2720 2717 2716 2716 2715 2712 2710 2708 2707 2707 2706 2704 2703 2702 2702 2702 2702 2701 2701 2699 2697 2696 2695 2694 2692 2691 2690 2689 2688 2686 2685 2684 2683 2682 2682 2682 2682 2683 2684 2685 2686 2688 2690 2692 2695 2697 2699 2700 2701 2703
2790 2788 2786 2784 2782 2780 2778 2776 2774 2772 2771 2769 2767 2765 2762 2760 2757 2755 2752 2751 2749 2747 2744 2742 2739 2736 2734 2732 2731 2730 2730 2729 2728 2726 2724 2721 2718 2715 2714 2713 2712 2710 2708 2706 2704 2703 2703 2701 2700 2700 2699 2699 2698 2697 2696 2695 2694 2692 2691 2691 2689 2688 2687 2686 2685 2683 2682 2681 2680 2679 2679 2679 2679 2680 2681 2682 2683 2685 2687 2689 2691 2694 2696 2697 2698 2700
2787 2786 2784 2782 2780 2778 2776 2774 2772 2770 2769 2767 2765 2763 2761 2759 2756 2753 2751 2749 2747 2745 2742 2740 2738 2735 2732 2730 2729 2728 2727 2727 2726 2725 2722 2719 2716 2713 2712 2711 2710 2708 2706 2703 2700 2699 2699 2699 2698 2697 2697 2696 2695 2694 2693 2692 2691 2690 2688 2687 2686 2685 2684 2683 2682 2680 2679 2678 2677 2677 2677 2677 2677 2677 2678 2679 2681 2682 2684 2686 2689 2691 2692 2694 2695 2697
2785 2783 2781 2780 2778 2776 2774 2772 2770 2768 2767 2765 2763 2761 2759 2757 2755 2752 2749 2747 2746 2743 2741 2738 2736 2734 2731 2728 2726 2725 2725 2725 2725 2723 2721 2718 2714 2712 2711 2709 2708 2707 2705 2702 2698 2695 2694 2695 2696 2696 2695 2694 2693 2691 2690 2689 2688 2686 2686 2685 2684 2683 2682 2681 2679 2678 2677 2676 2676 2675 2675 2675 2675 2676 2676 2677 2679 2680 2682 2684 2686 2687 2689 2690 2692 2694
2782 2780 2779 2777 2776 2774 2771 2770 2768 2766 2764 2763 2761 2759 2757 2755 2752 2750 2748 2746 2744 2741 2739 2736 2734 2732 2730 2728 2726 2723 2721 2722 2723 2722 2719 2716 2713 2710 2709 2708 2706 2705 2704 2703 2699 2694 2690 2690 2692 2694 2694 2692 2691 2690 2688 2687 2686 2684 2683 2682 2681 2680 2679 2678 2677 2676 2675 2675 2674 2674 2674 2674 2674 2674 2675 2676 2677 2678 2680 2681 2683 2685 2686 2687 2689 2691
2780 2778 2776 2775 2773 2771 2769 2767 2766 2764 2762 2760 2758 2756 2755 2752 2750 2748 2746 2744 2742 2740 2737 2735 2732 2731 2729 2727 2726 2723 2721 2721 2721 2720 2718 2715 2711 2709 2708 2706 2705 2703 2703 2702 2701 2697 2692 2688 2688 2691 2691 2690 2689 2687 2686 2685 2684 2682 2681 2680 2679 2678 2677 2676 2676 2675 2674 2673 2673 2673 2673 2673 2673 2673 2674 2674 2676 2676 2678 2679 2681 2682 2683 2685 2686 2688
2778 2776 2774 2772 2771 2769 2767 2765 2763 2761 2759 2757 2756 2754 2752 2750 2749 2747 2745 2742 2741 2739 2736 2734 2731 2729 2727 2725 2724 2722 2720 2719 2719 2718 2716 2714 2711 2708 2706 2705 2703 2702 2701 2700 2699 2697 2694 2690 2688 2688 2688 2687 2686 2685 2684 2683 2682 2681 2680 2678 2677 2677 2676 2675 2674 2673 2673 2672 2672 2672 2672 2671 2672 2672 2673 2673 2674 2676 2677 2678 2679 2681 2682 2683 2684 2686
2776 2774 2772 2771 2769 2767 2765 2763 2761 2759 2757 2755 2754 2752 2750 2748 2747 2745 2743 2741 2739 2737 2735 2733 2731 2728 2725 2723 2721 2720 2719 2718 2717 2716 2715 2713 2710 2707 2705 2704 2702 2701 2699 2697 2696 2695 2692 2690 2688 2686 2685 2684 2684 2684 2683 2681 2681 2680 2678 2677 2676 2676 2675 2674 2673 2673 2672 2672 2671 2671 2671 2671 2671 2672 2672 2673 2674 2675 2676 2677 2678 2679 2680 2681 2682 2684
2774 2772 2771 2768 2766 2765 2763 2761 2759 2757 2756 2754 2752 2750 2749 2747 2745 2743 2741 2740 2738 2736 2734 2732 2730 2728 2726 2723 2720 2718 2717 2716 2716 2715 2714 2712 2709 2706 2704 2702 2701 2700 2698 2696 2694 2692 2691 2689 2687 2686 2684 2682 2682 2682 2681 2681 2679 2678 2677 2677 2676 2675 2674 2673 2673 2672 2672 2672 2672 2671 2671 2671 2671 2672 2672 2673 2674 2674 2675 2676 2677 2678 2679 2680 2681 2682
2772 2770 2768 2766 2765 2762 2761 2759 2757 2756 2754 2752 2751 2749 2747 2745 2744 2742 2740 2738 2736 2735 2733 2731 2729 2727 2726 2723 2720 2717 2716 2714 2714 2713 2712 2711 2709 2706 2703 2701 2700 2699 2697 2695 2693 2691 2689 2687 2686 2685 2684 2682 2681 2681 2680 2679 2678 2677 2677 2676 2675 2674 2674 2673 2673 2673 2673 2673 2672 2672 2672 2672 2672 2672 2672 2673 2673 2674 2675 2676 2676 2677 2678 2679 2680 2681
2770 2768 2766 2765 2763 2761 2759 2757 2756 2754 2752 2751 2749 2747 2746 2744 2742 2740 2738 2736 2735 2733 2731 2730 2728 2726 2724 2722 2720 2718 2715 2713 2712 2711 2710 2709 2707 2705 2702 2700 2699 2698 2696 2694 2692 2690 2688 2686 2685 2683 2683 2682 2681 2680 2679 2678 2678 2677 2676 2676 2675 2674 2674 2674 2674 2674 2674 2673 2673 2673 2672 2672 2672 2672 2672 2673 2673 2674 2674 2675 2676 2676 2677 2678 2679 2680
2768 2767 2765 2763 2761 2760 2758 2756 2754 2753 2751 2749 2747 2746 2744 2742 2740 2738 2736 2735 2733 2731 2729 2727 2726 2724 2723 2721 2719 2717 2715 2713 2711 2710 2708 2707 2706 2704 2701 2699 2697 2696 2696 2694 2692 2690 2688 2686 2684 2682 2681 2681 2681 2680 2679 2678 2677 2677 2676 2675 2675 2675 2675 2675 2675 2674 2674 2674 2673 2673 2673 2673 2673 2673 2673 2673 2673 2674 2674 2674 2675 2676 2676 2677 2678 2679
2767 2765 2764 2762 2760 2759 2757 2755 2753 2751 2750 2748 2746 2744 2742 2741 2739 2737 2735 2733 2731 2729 2728 2726 2724 2722 2721 2719 2718 2716 2714 2712 2710 2709 2707 2706 2704 2702 2700 2698 2696 2695 2694 2693 2691 2690 2688 2686 2684 2682 2681 2680 2680 2679 2679 2678 2677 2676 2676 2676 2676 2676 2676 2676 2676 2675 2675 2674 2674 2674 2674 2673 2673 2673 2673 2672 2673 2673 2673 2673 2673 2673 2674 2675 2677 2678
2766 2764 2763 2761 2759 2757 2756 2754 2752 2750 2748 2746 2745 2743 2741 2739 2737 2735 2733 2731 2730 2728 2726 2724 2722 2721 2719 2718 2716 2715 2713 2711 2709 2707 2706 2704 2702 2701 2699 2697 2695 2693 2692 2691 2690 2689 2687 2685 2684 2683 2682 2681 2680 2679 2678 2678 2677 2677 2676 2676 2677 2677 2677 2677 2676 2676 2676 2675 2675 2674 2674 2673 2672 2672 2671 2671 2671 2671 2671 2671 2671 2672 2673 2674 2675 2677
2765 2763 2761 2760 2758 2756 2755 2753 2751 2749 2747 2745 2743 2741 2739 2737 2735 2733 2731 2730 2728 2726 2725 2723 2721 2719 2718 2717 2716 2714 2712 2710 2708 2706 2704 2703 2701 2699 2697 2696 2694 2692 2691 2690 2689 2687 2686 2685 2683 2682 2682 2681 2680 2679 2679 2678 2678 2677 2677 2678 2678 2678 2678 2678 2677 2677 2676 2675 2674 2674 2673 2672 2671 2671 2671 2671 2671 2671 2672 2671 2671 2671 2672 2673 2675 2677
2764 2762 2760 2759 2757 2755 2753 2751 2750 2748 2746 2744 2742 2740 2738 2736 2733 2731 2729 2728 2726 2725 2723 2721 2719 2718 2717 2716 2715 2713 2711 2709 2707 2705 2703 2701 2700 2698 2696 2695 2694 2692 2691 2689 2687 2686 2686 2684 2683 2682 2681 2681 2680 2679 2679 2678 2678 2678 2678 2679 2679 2679 2679 2679 2678 2677 2676 2675 2674 2673 2672 2671 2671 2672 2672 2672 2672 2672 2672 2672 2672 2672 2672 2673 2674 2676
2763 2761 2759 2757 2756 2754 2752 2751 2749 2747 2745 2743 2741 2739 2737 2735 2732 2730 2728 2726 2725 2723 2721 2720 2718 2717 2715 2714 2713 2712 2711 2708 2706 2704 2702 2700 2699 2697 2695 2694 2693 2691 2689 2688 2686 2686 2685 2684 2683 2682 2681 2681 2680 2680 2679 2679 2679 2679 2679 2680 2681 2680 2680 2679 2678 2677 2676 2675 2674 2673 2673 2672 2673 2673 2673 2673 2673 2673 2672 2672 2673 2673 2673 2673 2673 2675
2762 2760 2758 2756 2755 2753 2751 2750 2748 2746 2744 2742 2740 2738 2736 2734 2732 2730 2727 2726 2724 2722 2720 2719 2717 2716 2714 2713 2712 2711 2709 2707 2706 2703 2701 2700 2698 2696 2694 2693 2691 2690 2688 2687 2686 2685 2684 2684 2683 2682 2681 2681 2681 2680 2680 2680 2680 2680 2681 2681 2682 2681 2681 2680 2679 2677 2676 2675 2675 2674 2674 2674 2674 2674 2674 2673 2673 2673 2673 2672 2672 2673 2673 2673 2673 2674
2761 2759 2757 2756 2754 2752 2751 2749 2747 2745 2743 2741 2740 2737 2736 2733 2731 2729 2727 2725 2723 2721 2720 2718 2716 2715 2713 2712 2711 2709 2708 2706 2704 2702 2701 2699 2697 2696 2694 2692 2690 2688 2687 2686 2685 2684 2683 2683 2682 2682 2681 2681 2681 2681 2681 2681 2681 2681 2682 2682 2683 2682 2681 2680 2679 2678 2677 2676 2676 2676 2676 2676 2675 2675 2674 2674 2673 2673 2673 2673 2673 2673 2674 2674 2674 2674
2760 2758 2756 2755 2753 2751 2750 2748 2746 2744 2743 2741 2739 2737 2735 2733 2731 2729 2727 2725 2723 2721 2719 2717 2716 2714 2712 2711 2710 2708 2706 2705 2703 2701 2700 2698 2696 2695 2693 2691 2689 2687 2686 2685 2685 2684 2683 2682 2682 2682 2681 2681 2681 2681 2681 2682 2682 2683 2683 2684 2684 2683 2682 2681 2680 2679 2678 2678 2678 2678 2677 2677 2676 2676 2675 2675 2674 2674 2674 2674 2674 2674 2674 2675 2675 2675
2759 2757 2756 2754 2752 2751 2749 2747 2746 2744 2742 2741 2739 2737 2735 2733 2731 2729 2727 2725 2722 2721 2719 2717 2716 2714 2712 2711 2709 2707 2705 2703 2702 2700 2699 2697 2696 2694 2692 2691 2688 2687 2686 2685 2684 2683 2683 2682 2682 2682 2682 2682 2682 2682 2683 2683 2684 2684 2685 2685 2685 2684 2682 2682 2681 2681 2680 2680 2680 2679 2679 2678 2677 2677 2676 2675 2675 2675 2674 2674 2674 2675 2675 2675 2675 2676
2758 2757 2755 2753 2752 2750 2749 2747 2745 2743 2742 2740 2738 2736 2735 2732 2731 2728 2726 2725 2722 2721 2719 2717 2715 2714 2712 2711 2709 2707 2705 2703 2701 2700 2698 2697 2695 2694 2692 2690 2688 2686 2685 2684 2683 2683 2682 2682 2682 2682 2682 2683 2683 2683 2684 2685 2685 2686 2686 2686 2685 2684 2683 2683 2683 2682 2682 2682 2681 2681 2681 2680 2679 2678 2677 2676 2676 2675 2675 2675 2675 2675 2675 2676 2676 2676
2758 2756 2754 2753 2751 2750 2748 2746 2745 2743 2741 2739 2738 2736 2735 2733 2731 2729 2727 2725 2722 2721 2718 2716 2715 2714 2712 2711 2709 2707 2705 2703 2701 2700 2698 2696 2695 2693 2691 2689 2687 2686 2685 2684 2683 2683 2682 2682 2682 2683 2683 2684 2684 2685 2685 2686 2686 2687 2687 2687 2686 2685 2685 2685 2685 2685 2684 2684 2683 2683 2682 2681 2680 2680 2679 2677 2676 2676 2676 2676 2676 2676 2676 2676 2676 2677
2758 2756 2754 2752 2751 2749 2747 2746 2744 2742 2740 2739 2737 2735 2734 2732 2731 2729 2727 2725 2723 2721 2719 2717 2715 2713 2712 2710 2709 2707 2705 2703 2702 2700 2698 2697 2695 2693 2691 2689 2687 2686 2685 2684 2683 2683 2683 2683 2683 2684 2684 2685 2686 2686 2687 2687 2688 2688 2688 2687 2687 2686 2686 2686 2686 2686 2686 2686 2685 2684 2684 2683 2682 2681 2680 2679 2677 2676 2676 2676 2676 2676 2676 2677 2677 2678
2757 2756 2754 2752 2750 2749 2747 2745 2743 2741 2740 2738 2736 2735 2733 2731 2730 2728 2727 2725 2723 2721 2719 2717 2715 2713 2712 2710 2709 2707 2706 2704 2702 2700 2699 2697 2696 2693 2691 2689 2688 2686 2686 2685 2684 2684 2684 2684 2684 2685 2686 2686 2687 2688 2688 2689 2689 2689 2689 2688 2688 2688 2688 2688 2688 2688 2688 2687 2687 2686 2686 2685 2684 2683 2682 2680 2679 2678 2677 2676 2676 2676 2677 2677 2678 2678